Location: La Tine
(46.4708°N, 7.0525°E)
Time: 04:32:02
(UTC+00:00)

CZ-2C R/B - Visible Passes

Search period start: 04 August 2021 00:00
Search period end: 14 August 2021 00:00
Orbit: 784 x 871 km, 98.2° (Epoch: 03 August)

Date Brightness Start Highest point End Pass type
(mag) Time Alt. Az. Time Alt. Az. Time Alt. Az.
04 Aug 6.3 03:14:17 10° ENE 03:16:12 12° NE 03:18:07 10° NNE visible
05 Aug 6.1 20:10:02 10° NNW 20:11:53 12° NW 20:13:43 10° WNW visible
06 Aug 5.8 19:50:23 10° NNW 19:53:32 16° WNW 19:56:40 10° W visible
07 Aug 5.5 19:31:11 10° NNW 19:35:08 23° WNW 19:39:04 10° WSW visible
08 Aug 5.8 03:38:00 10° ESE 03:41:37 19° ENE 03:45:13 10° NNE visible
09 Aug 6.1 03:20:43 10° E 03:23:16 14° NE 03:25:47 10° NNE visible
10 Aug 6.3 20:18:33 10° NW 20:18:54 10° NW 20:19:15 10° WNW visible
11 Aug 5.9 19:57:56 10° NNW 20:00:34 14° NW 20:03:14 10° W visible
12 Aug 5.7 19:38:34 10° NNW 19:42:12 20° WNW 19:45:50 10° WSW visible
13 Aug 5.7 03:44:48 10° ESE 03:48:42 21° ENE 03:52:34 10° NNE visible
13 Aug 5.1 19:19:29 10° N 19:23:46 27° WNW 19:28:03 10° WSW visible
